Location: Killam
(52.7910°N, 111.8608°W)
Time: 11:20:17
(UTC+00:00)

SR - Pass Details

Date: 17 February 2026
Orbit: 573 x 848 km, 66.7° (Epoch: 7 March)

Event Time Altitude Azimuth Distance (km) Brightness Sun altitude
Exits shadow 12:06:35 27° 169° (S) 1,139 ? -23.7°
Maximum altitude 12:08:20 41° 119° (ESE) 874 ? -23.4°
Drops below altitude 10° 12:12:31 10° 50° (NE) 2,001 ? -22.8°
Sets 12:14:58 0° 43° (NE) 2,954 ? -22.5°
